Regional Weather Roundup
Issued by NWS

Home | Current Version | Previous Version | Graphics & Text | Print | Product List | Glossary On
Versions: 1 2 3 4 5 6 7 8 9 10 11 12 13 14 15 16 17 18 19 20 21 22 23 24 25 26 27 28 29 30 31 32 33 34 35 36 37 38 39 40 41 42 43 44 45 46 47 48 49 50
000
ASUS43 KMKX 190600
RWRWI

WISCONSIN REGIONAL WEATHER ROUNDUP
NATIONAL WEATHER SERVICE MILWAUKEE/SULLIVAN WI
100 AM CDT FRI SEP 19 2014

NOTE: "FAIR" INDICATES FEW OR NO CLOUDS BELOW 12,000 FEET WITH NO
SIGNIFICANT WEATHER AND/OR OBSTRUCTIONS TO VISIBILITY.

WIZ001-002-006>008-014>016-023>028-190700-
NORTHWEST WISCONSIN

CITY           SKY/WX    TMP DP  RH WIND       PRES   REMARKS
SUPERIOR ARPT  CLOUDY    49  47  96 CALM      29.99F
ASHLAND        CLEAR     38  37  97 CALM      30.02F
6HR MIN TEMP:  38; 6HR MAX TEMP:  47;

HAYWARD        PTCLDY    53  51  93 S8        30.03F
6HR MIN TEMP:  51; 6HR MAX TEMP:  57;

SIREN          CLEAR     55  53  93 S9        30.00F
RICE LAKE      CLEAR     51  49  93 SE5       30.06R
LADYSMITH      MOCLDY    52  50  93 SE6       30.08S
EAU CLAIRE     NOT AVBL
MENOMONIE      CLEAR     53  52  96 E5        30.05S FOG
NEW RICHMOND   CLEAR     56  55  97 SE8       30.02S
OSCEOLA        PTCLDY    58  57  99 SE9       30.02S
$$

WIZ003>005-009-010-017-018-190700-
NORTH CENTRAL WISCONSIN

CITY           SKY/WX    TMP DP  RH WIND       PRES   REMARKS
WOODRUFF       MOCLDY    52  49  92 S7        30.09S
RHINELANDER    PTCLDY    47  45  93 S6        30.11S FOG
6HR MIN TEMP:  46; 6HR MAX TEMP:  53;

EAGLE RIVER    PTCLDY    45  45 100 SE3       30.10S FOG
LAND O LAKES   PTCLDY    46  46  99 S3        30.10F FOG
PHILLIPS       CLEAR     49  48  95 S7        30.08R
TOMAHAWK       PTCLDY    46  45  96 CALM      30.11S FOG
MEDFORD        CLEAR     49  48  97 SE7       30.09S FOG
MERRILL        CLEAR     47  47 100 SE5       30.10F FOG
$$

WIZ029-030-035-036-043>047-190700-
CENTRAL WISCONSIN

CITY           SKY/WX    TMP DP  RH WIND       PRES   REMARKS
WAUSAU         MOCLDY    47  46  97 E5        30.11F FOG
6HR MIN TEMP:  46; 6HR MAX TEMP:  54;

MOSINEE        MOCLDY    46  46 100 SE7       30.12S FOG
MARSHFIELD     CLEAR     50  48  93 S7        30.10S FOG
6HR MIN TEMP:  49; 6HR MAX TEMP:  54;

STEVENS POINT  CLEAR     46  46  99 SE5       30.12F FOG
WAUPACA        CLEAR     48  47  95 SE3       30.15F FOG
WAUTOMA        FOG       43  43 100 CALM      30.15F VSB 1/4
WISC RAPIDS    CLEAR     51  49  92 SE8       30.11F
6HR MIN TEMP:  49; 6HR MAX TEMP:  57;

CAMP DOUGLAS   NOT AVBL
$$

WIZ011>013-019>022-031-037>040-048>050-190700-
NORTHEAST WISCONSIN

CITY           SKY/WX    TMP DP  RH WIND       PRES   REMARKS
ANTIGO         CLOUDY    46  46  99 S9        30.13F FOG
STURGEON BAY   CLEAR     46  43  87 CALM      30.17F
6HR MIN TEMP:  45; 6HR MAX TEMP:  52;

GREEN BAY      CLEAR     45  44  97 CALM      30.16F FOG
6HR MIN TEMP:  44; 6HR MAX TEMP:  52;

MANITOWOC      NOT AVBL
APPLETON       CLEAR     48  46  93 SE6       30.16F
CLINTONVILLE   CLEAR     45  43  93 SE3       30.14F
OSHKOSH        CLEAR     45  45 100 S5        30.15F
6HR MIN TEMP:  45; 6HR MAX TEMP:  57;

$$

WIZ032>034-041-042-053>061-190700-
SOUTHWEST WISCONSIN

CITY           SKY/WX    TMP DP  RH WIND       PRES   REMARKS
LA CROSSE      CLEAR     58  53  84 S7        30.08R
6HR MIN TEMP:  57; 6HR MAX TEMP:  66;

SPARTA         CLEAR     48  48 100 CALM      30.09F
VIROQUA        FAIR      54  54 100 SE8       30.09F
BOSCOBEL       CLEAR     55  52  89 CALM      30.10F
6HR MIN TEMP:  51; 6HR MAX TEMP:  64;

PRAIRIE DU CHI CLEAR     56  50  80 E7        30.09S
PLATTEVILLE    FAIR      53  52  94 CALM      30.13F
$$

WIZ056-057-062-063-064-067-068-190700-
SOUTH CENTRAL WISCONSIN

CITY           SKY/WX    TMP DP  RH WIND       PRES   REMARKS
BARABOO/DELLS  CLEAR     51  49  95 SE5       30.13F FOG
LONE ROCK      NOT AVBL
WATERTOWN      CLOUDY    49  49 100 CALM      30.16S FOG
MADISON        CLOUDY    52  50  93 SE7       30.16R FOG
6HR MIN TEMP:  51; 6HR MAX TEMP:  62;

MIDDLETON      FAIR      53  52  99 SE5       30.16R
MONROE         MOCLDY    50  50 100 E3        30.16R FOG
JANESVILLE     MOCLDY    50  46  87 CALM      30.15S FOG
$$

WIZ051-052-058>065-066-070>072-190700-
SOUTHEAST WISCONSIN

CITY           SKY/WX    TMP DP  RH WIND       PRES   REMARKS
MILWAUKEE      PTCLDY    52  49  89 CALM      30.18S
6HR MIN TEMP:  51; 6HR MAX TEMP:  57;

WAUKESHA       PTCLDY    48  48 100 CALM      30.19R FOG
MILWAUKEE/TIMM PTCLDY    52  48  87 CALM      30.19R
RACINE         CLEAR     53  50  89 CALM      30.19R
6HR MIN TEMP:  50; 6HR MAX TEMP:  57;

BURLINGTON     FOG       44  44 100 CALM      30.17S VSB 1
KENOSHA        FOG       48  48 100 NE3       30.17S VSB 1/4
6HR MIN TEMP:  47; 6HR MAX TEMP:  56;

FOND DU LAC    CLEAR     46  44  93 SE5       30.16F
6HR MIN TEMP:  46; 6HR MAX TEMP:  56; 6HR PCP: TRACE;

SHEBOYGAN      FOG       41  39  93 CALM      30.18S VSB 3/4
6HR MIN TEMP:  41; 6HR MAX TEMP:  51;

WEST BEND      FOG       43  41  93 CALM      30.18S VSB 1/4
JUNEAU         FOG       49  49  99 E5        30.17F VSB<1/4
$$

LSZ147-162-190700-
LAKE SUPERIOR

STATION/POSITION TIME  TEMP    WIND        PRES    WAVE
                       AIR SEA DIR/SP/G            HT/PER
                 (UTC) (F)     (DEG/KT/KT) (MB)    (FT/S)
W MID LAKE BUOY  0450   48 47  140/  8/ 10 1017.1F   1/ 4
DEVILS ISLAND    0500   50      90/  3/  3 1016.9F
PORT WING        0540   44      CALM  /  3 1016.3F
SAXON HARBOR     0500   54     190/  7/ 14 1016.6S
$$

LMZ867-665-643>646-190700-
LAKE MICHIGAN

STATION/POSITION TIME  TEMP    WIND        PRES    WAVE
                       AIR SEA DIR/SP/G            HT/PER
                 (UTC) (F)     (DEG/KT/KT) (MB)    (FT/S)
N MID LAKE BUOY  0450   56 58  150/  6/  8 1021.9F   0
NORTHPORT PIER   0500   51     170/  4/  7 1021.7F
SISTER BAY       0427   49        CALM       N/A
KEWAUNEE LAKESHO 0500   46     300/  3/  4 1020.7F
SHEBOYGAN LAKESH 0500   51 49  270/  2/  2 1022.4F
PORT WASHINGTON  0500   48     280/  3/  4 1022.4S
ATWATER BUOY     0500   58     100/  6/  6 1022.6F
MILWAUKEE LAKESH 0500   58      80/  7/  9   N/A
S MID LAKE BUOY  0450   61 63  110/ 12/ 16 1022.0R   2/ 5
KENOSHA   LAKESH 0500   60      80/  8/  9 1021.7R
$$

TC  - TEMPERATURE IN CELSIUS
VSB - VISIBILITY IN STATUTE MILES
WCI - WIND CHILL INDEX
HX  - HEAT INDEX




USA.gov is the U.S. government's official web portal to all federal, state and local government web resources and services.